Find Starlink 11677

NORAD ID: 63751 Int'l Des: 2025-089 Owner: SPXS Country: US Constellation: starlink operational
LEOCIRCULAR

实时位置

正在加载3D地球...

关于 Starlink 11677

正在加载描述...

即将过境

Passes for default location (London). Set your location on the main map for personalized predictions.

高度历史

Loading altitude history...

两行轨道根数

1 63751U 25089A 26127.51480081 .00012515 00000-0 10080-3 0 9997
2 63751 42.9996 297.9841 0001245 281.4770 78.5958 15.70858433 59385
Epoch: May 7, 2026 • Age: 9 hours

当前状态

高度 363.9 km
速度 7.69 km/s
星下点 -30.64°S, 71.24°E
发射日期 Apr 29, 2025
运行时间 1 years
类型 internet

技术详情

分类 Payload
质量 960.00 kg
干质量 910.00 kg
总质量 960.00 kg
长度 0.30 m
直径 4.10 m
跨度 29.00 m
形状 Box + pan
制造商 SPXS
平台类型 Starlink V2MD
阶段状态 In Orbit
所有者/国家 SPXS/US

Most Searched